Regional Weather Roundup
Issued by NWS Sioux Falls, SD

Home | Current Version | Previous Version | Text Only | Print | Product List | Glossary On
Versions: 1 2 3 4 5 6 7 8 9 10 11 12 13 14 15 16 17 18 19 20 21 22 23 24 25 26 27 28 29 30 31 32 33 34 35 36 37 38 39 40 41 42 43 44 45 46 47 48 49 50
000
ASUS43 KFSD 250110
RWRFSD

WEATHER ROUNDUP FOR SE SOUTH DAKOTA/SW MINNESOTA/NW IOWA
NATIONAL WEATHER SERVICE SIOUX FALLS SD
800 PM CDT FRI OCT 24 2014

NOTE: "FAIR" INDICATES FEW OR NO CLOUDS BELOW 12,000 FEET WITH NO
SIGNIFICANT WEATHER AND OR OBSTRUCTIONS TO VISIBILITY.


SDZ038>040-050-052>070-250200-
SOUTHEAST SOUTH DAKOTA

CITY           SKY/WX    TMP DP  RH WIND       PRES   REMARKS
CHAMBERLAIN    CLEAR     54  35  48 CALM      29.98R
HURON          CLEAR     54  36  50 NW9       29.95R
MADISON        FAIR      59  39  47 W5        29.95S
MITCHELL         N/A     64  41  42 W5        29.96R
SIOUX FALLS    PTCLDY    57  43  59 S3        29.94R
WINNER         FAIR      64  30  27 SE5       30.00R
YANKTON        PTCLDY    59  45  58 W5        29.96R
$$

MNZ071-072-080-081-089-090-097-098-250200-
SOUTHWEST MINNESOTA

CITY           SKY/WX    TMP DP  RH WIND       PRES   REMARKS
FAIRMONT       MOCLDY    57   5  12 W3        29.91S
JACKSON        MOCLDY    59  36  41 W5        29.94R
LUVERNE        PTCLDY    55  43  62 CALM      29.94S
MARSHALL       CLOUDY    61  39  44 W12       29.90S
MONTEVIDEO     MOCLDY    64  41  42 W5        29.89S
PIPESTONE      CLEAR     57  41  54 NW3       29.95R
REDWOOD FALLS  MOCLDY    61  41  47 W9        29.89R
TRACY          MOCLDY    64  41  42 W6        29.92R
WINDOM         MOCLDY    59  37  44 SW5       29.92R
WORTHINGTON    PTCLDY    55  39  54 W6        29.95R
$$

IAZ001>003-012>014-020>022-031-032-NEZ013-014-SDZ071-250200-
NORTHWEST IOWA

CITY           SKY/WX    TMP DP  RH WIND       PRES   REMARKS
CHEROKEE       MOCLDY    57  49  74 CALM      29.95R
DENISON        PTCLDY    59  54  82 CALM      29.94R
ESTHERVILLE    MOCLDY    57  38  48 W6        29.92R
LE MARS        MOCLDY    54  46  76 CALM      29.95R
ORANGE CITY    MOCLDY    66  45  45 CALM      29.95R
SHELDON        PTCLDY    55  45  67 CALM      29.93S
SIOUX CITY     PTCLDY    57  46  66 W5        29.95R
SPENCER        PTCLDY    53  43  68 W5        29.94R
STORM LAKE     MOCLDY    61  48  63 W8        29.96R
$$

ABBREVIATIONS USED IN REMARKS
   TC - TEMPERATURE IN CELSIUS
  WCI - WIND CHILL INDEX
   HX - HEAT INDEX
  VSB - VISIBILITY




USA.gov is the U.S. government's official web portal to all federal, state and local government web resources and services.